Date String (YYYY-MM-DD hh:mm:ss) UTC,Instrument flags,absolute air pressure of the measurement (hPa),sample flow rate (lpm),inlet stack bypass flow (lpm),air temperature of the measurement (°C),ambient temperature measured by the external sensor (°C),aerosol sample conditioner tube jacket temperature (°C),OPC LED temperature (°C),internal box temperature (°C),relative humidity of the measurement (%),span deviation,mass concentration of particles derived from Lorenz-Mie calculation of OPC scattering (μg/m³),mass concentration of particles derived from Lorenz-Mie calculation of OPC scattering (μg/m³),mass concentration of particles derived from Lorenz-Mie calculation of OPC scattering (μg/m³)
DateTimeUTC,F1_M11,P_M11,Q1_M11,Q2_M11,T1_M11,T2_M11,T3_M11,T4_M11,T5_M11,U1_M11,ZSPAN_M11,X0_M11,X2_M11,X1_M11
2023-11-21 01:00:00,SystemResetWarning,0838.4,5.00,000.00,023.2,022.2,000.0,031.4,024.5,15.1,0000.0,0002.16,0000.96,0000.67
2023-11-21 01:01:00,SystemResetWarning,0838.4,5.00,000.00,023.2,022.3,000.0,031.4,024.5,15.1,0000.0,0002.20,0000.96,0000.67
2023-11-21 01:02:00,SystemResetWarning,0838.5,5.00,000.00,023.2,022.3,000.0,031.4,024.5,15.0,0000.0,0002.23,0000.98,0000.68
2023-11-21 01:03:00,SystemResetWarning,0838.5,5.00,000.00,023.2,022.3,000.0,031.4,024.5,15.0,0000.0,0002.17,0000.97,0000.68
2023-11-21 01:04:00,SystemResetWarning,0838.5,4.99,000.00,023.2,022.3,000.0,031.4,024.5,15.1,0000.0,0002.61,0001.00,0000.68
2023-11-21 01:05:00,SystemResetWarning,0838.6,5.01,000.00,023.2,022.3,000.0,031.4,024.5,15.1,0000.0,0003.50,0001.02,0000.68
2023-11-21 01:06:00,SystemResetWarning,0838.6,5.00,000.00,023.2,022.3,000.0,031.4,024.5,15.1,0000.0,0003.61,0001.06,0000.67
2023-11-21 01:07:00,SystemResetWarning,0838.6,5.00,000.00,023.2,022.3,000.0,031.4,024.5,15.1,0000.0,0003.60,0001.05,0000.68
2023-11-21 01:08:00,SystemResetWarning,0838.6,5.01,000.00,023.2,022.3,000.0,031.4,024.5,15.2,0000.0,0003.63,0001.06,0000.68
2023-11-21 01:09:00,SystemResetWarning,0838.6,5.01,000.00,023.2,022.3,000.0,031.4,024.5,15.1,0000.0,0003.45,0001.04,0000.68
2023-11-21 01:10:00,SystemResetWarning,0838.6,5.00,000.00,023.2,022.3,000.0,031.4,024.5,15.1,0000.0,0003.43,0001.04,0000.69
2023-11-21 01:11:00,SystemResetWarning,0838.7,5.00,000.00,023.2,022.3,000.0,031.4,024.5,15.1,0000.0,0003.45,0001.06,0000.68
2023-11-21 01:12:00,SystemResetWarning,0838.7,5.00,000.00,023.2,022.3,000.0,031.4,024.5,15.2,0000.0,0003.36,0001.04,0000.69
2023-11-21 01:13:00,SystemResetWarning,0838.8,4.99,000.00,023.2,022.3,000.0,031.5,024.5,15.2,0000.0,0003.22,0001.01,0000.68
2023-11-21 01:14:00,SystemResetWarning,0838.8,5.00,000.00,023.2,022.3,000.0,031.5,024.5,15.2,0000.0,0003.39,0001.05,0000.69
2023-11-21 01:15:00,SystemResetWarning,0838.8,4.99,000.00,023.2,022.3,000.0,031.5,024.5,15.2,0000.0,0003.34,0001.05,0000.70
2023-11-21 01:16:00,SystemResetWarning,0838.8,5.01,000.00,023.2,022.3,000.0,031.5,024.5,15.1,0000.0,0002.11,0001.02,0000.72
2023-11-21 01:17:00,SystemResetWarning,0838.8,5.00,000.00,023.2,022.3,000.0,031.5,024.5,15.1,0000.0,0001.71,0001.00,0000.74
2023-11-21 01:18:00,SystemResetWarning,0838.8,5.01,000.00,023.2,022.3,000.0,031.5,024.5,15.2,0000.0,0001.69,0000.99,0000.74
2023-11-21 01:19:00,SystemResetWarning,0838.8,5.01,000.00,023.2,022.3,000.0,031.5,024.5,15.2,0000.0,0002.30,0000.98,0000.75
2023-11-21 01:20:00,SystemResetWarning,0838.8,4.99,000.00,023.2,022.3,000.0,031.5,024.5,15.2,0000.0,0003.45,0001.00,0000.76
2023-11-21 01:21:00,SystemResetWarning,0838.8,4.99,000.00,023.2,022.3,000.0,031.5,024.5,15.2,0000.0,0003.64,0001.04,0000.77
2023-11-21 01:22:00,SystemResetWarning,0838.8,4.99,000.00,023.2,022.3,000.0,031.5,024.6,15.2,0000.0,0003.59,0001.04,0000.78
2023-11-21 01:23:00,SystemResetWarning,0838.8,4.99,000.00,023.2,022.3,000.0,031.5,024.5,15.2,0000.0,0003.72,0001.08,0000.79
2023-11-21 01:24:00,SystemResetWarning,0838.8,5.00,000.00,023.2,022.3,000.0,031.5,024.5,15.2,0000.0,0003.92,0001.13,0000.82
2023-11-21 01:25:00,SystemResetWarning,0838.8,5.00,000.00,023.2,022.3,000.0,031.5,024.5,15.1,0000.0,0003.88,0001.14,0000.84
2023-11-21 01:26:00,SystemResetWarning,0838.8,5.01,000.00,023.2,022.3,000.0,031.5,024.5,15.1,0000.0,0003.79,0001.12,0000.83
2023-11-21 01:27:00,SystemResetWarning,0838.8,5.01,000.00,023.2,022.3,000.0,031.5,024.5,15.1,0000.0,0003.82,0001.13,0000.84
2023-11-21 01:28:00,SystemResetWarning,0838.9,5.00,000.00,023.2,022.3,000.0,031.5,024.5,15.1,0000.0,0003.93,0001.17,0000.85
2023-11-21 01:29:00,SystemResetWarning,0838.9,4.99,000.00,023.2,022.3,000.0,031.5,024.5,15.1,0000.0,0004.05,0001.22,0000.87
2023-11-21 01:30:00,SystemResetWarning,0839.0,4.99,000.00,023.2,022.3,000.0,031.5,024.5,15.0,0000.0,0003.82,0001.27,0000.88
2023-11-21 01:31:00,SystemResetWarning,0839.1,4.99,000.00,023.2,022.3,000.0,031.5,024.5,15.0,0000.0,0002.68,0001.26,0000.89
2023-11-21 01:32:00,SystemResetWarning,0839.2,5.00,000.00,023.2,022.3,000.0,031.5,024.5,15.1,0000.0,0002.45,0001.22,0000.90
2023-11-21 01:33:00,SystemResetWarning,0839.2,5.00,000.00,023.2,022.3,000.0,031.5,024.5,15.0,0000.0,0002.39,0001.21,0000.91
2023-11-21 01:34:00,SystemResetWarning,0839.2,5.00,000.00,023.2,022.3,000.0,031.5,024.5,15.1,0000.0,0002.45,0001.21,0000.92
2023-11-21 01:35:00,SystemResetWarning,0839.2,5.01,000.00,023.2,022.3,000.0,031.5,024.5,15.1,0000.0,0002.46,0001.22,0000.93
2023-11-21 01:36:00,SystemResetWarning,0839.2,4.99,000.00,023.2,022.4,000.0,031.5,024.6,15.1,0000.0,0002.36,0001.19,0000.92
2023-11-21 01:37:00,SystemResetWarning,0839.2,5.00,000.00,023.3,022.4,000.0,031.5,024.6,15.1,0000.0,0002.58,0001.24,0000.94
2023-11-21 01:38:00,SystemResetWarning,0839.2,5.00,000.00,023.3,022.4,000.0,031.5,024.5,15.1,0000.0,0002.66,0001.27,0000.94
2023-11-21 01:39:00,SystemResetWarning,0839.3,5.01,000.00,023.3,022.4,000.0,031.5,024.6,15.1,0000.0,0002.76,0001.28,0000.94
2023-11-21 01:40:00,SystemResetWarning,0839.2,5.00,000.00,023.3,022.4,000.0,031.5,024.6,15.0,0000.0,0003.97,0001.26,0000.94
2023-11-21 01:41:00,SystemResetWarning,0839.2,5.00,000.00,023.3,022.4,000.0,031.5,024.6,15.0,0000.0,0003.60,0001.24,0000.94
2023-11-21 01:42:00,SystemResetWarning,0839.2,5.00,000.00,023.3,022.4,000.0,031.5,024.5,15.0,0000.0,0003.72,0001.23,0000.94
2023-11-21 01:43:00,SystemResetWarning,0839.2,5.00,000.00,023.3,022.4,000.0,031.5,024.5,14.9,0000.0,0003.96,0001.25,0000.93
2023-11-21 01:44:00,SystemResetWarning,0839.2,5.01,000.00,023.3,022.4,000.0,031.5,024.6,14.9,0000.0,0003.93,0001.24,0000.93
2023-11-21 01:45:00,SystemResetWarning,0839.3,5.00,000.00,023.3,022.4,000.0,031.5,024.5,14.9,0000.0,0003.94,0001.25,0000.93
2023-11-21 01:46:00,SystemResetWarning,0839.3,5.00,000.00,023.3,022.4,000.0,031.5,024.6,14.9,0000.0,0003.78,0001.22,0000.92
2023-11-21 01:47:00,SystemResetWarning,0839.3,4.99,000.00,023.3,022.4,000.0,031.5,024.6,14.8,0000.0,0003.75,0001.21,0000.92
2023-11-21 01:48:00,SystemResetWarning,0839.3,5.00,000.00,023.3,022.4,000.0,031.5,024.6,14.7,0000.0,0004.48,0001.20,0000.92
2023-11-21 01:49:00,SystemResetWarning,0839.3,4.99,000.00,023.3,022.4,000.0,031.5,024.6,14.6,0000.0,0004.86,0001.19,0000.93
2023-11-21 01:50:00,SystemResetWarning,0839.4,5.00,000.00,023.3,022.4,000.0,031.5,024.6,14.6,0000.0,0004.88,0001.20,0000.94
2023-11-21 01:51:00,SystemResetWarning,0839.3,5.00,000.00,023.3,022.4,000.0,031.5,024.6,14.6,0000.0,0003.70,0001.19,0000.94
2023-11-21 01:52:00,SystemResetWarning,0839.3,5.00,000.00,023.3,022.4,000.0,031.5,024.6,14.6,0000.0,0003.62,0001.20,0000.94
2023-11-21 01:53:00,SystemResetWarning,0839.3,5.00,000.00,023.3,022.4,000.0,031.5,024.6,14.5,0000.0,0003.40,0001.19,0000.93
2023-11-21 01:54:00,SystemResetWarning,0839.3,5.00,000.00,023.3,022.4,000.0,031.5,024.6,14.5,0000.0,0003.32,0001.20,0000.95
2023-11-21 01:55:00,SystemResetWarning,0839.2,4.99,000.00,023.3,022.4,000.0,031.5,024.6,14.5,0000.0,0003.45,0001.23,0000.95
2023-11-21 01:56:00,SystemResetWarning,0839.2,4.99,000.00,023.3,022.4,000.0,031.5,024.6,14.5,0000.0,0003.44,0001.22,0000.95
2023-11-21 01:57:00,SystemResetWarning,0839.3,5.00,000.00,023.3,022.3,000.0,031.5,024.6,14.5,0000.0,0003.53,0001.26,0000.95
2023-11-21 01:58:00,SystemResetWarning,0839.3,5.01,000.00,023.3,022.3,000.0,031.5,024.6,14.4,0000.0,0003.61,0001.31,0000.95
2023-11-21 01:59:00,SystemResetWarning,0839.4,5.01,000.00,023.3,022.3,000.0,031.5,024.6,14.4,0000.0,0002.75,0001.28,0000.95
